Theta_e
324 327 321 323 326 326 332 333 330 327 326 327 327 328 331 331 331 336 338 340 338 348 348 344 335 339 340 345 348 347 344 343 342 343 343 341 340 343 342 338 336 338 335 332 330 328 326 323 319
324 326 325 325 326 330 331 332 328 328 326 326 326 326 326 328 330 335 338 342 337 350 350 347 338 337 339 343 347 348 347 346 344 345 344 342 340 339 339 334 333 333 329 327 323 321 318 315 312
325 326 328 327 325 330 331 328 328 327 325 324 326 327 329 330 334 336 339 343 339 347 351 348 340 333 337 343 348 348 348 347 346 346 344 340 337 336 335 332 330 326 324 323 322 319 314 312 313
326 328 327 328 327 327 327 325 325 325 325 325 325 328 330 332 333 336 339 344 343 345 350 349 339 333 335 342 348 349 349 348 348 346 343 337 334 334 332 328 326 323 322 323 320 315 314 316 317
325 327 330 330 328 327 326 324 324 324 325 324 325 328 331 332 332 335 343 344 344 342 348 350 338 336 332 339 346 350 349 349 348 345 341 333 331 332 328 325 323 321 319 320 317 316 317 318 319
329 328 330 331 330 328 325 324 326 326 326 326 326 329 332 331 329 334 343 344 343 342 346 355 339 338 333 336 345 350 350 349 349 346 340 332 330 327 324 324 322 318 318 318 316 317 319 319 321
328 330 330 330 330 330 328 324 327 328 329 329 329 329 332 331 327 329 343 343 341 342 344 354 346 345 337 333 342 349 350 350 348 347 341 335 332 326 324 324 321 319 321 320 319 318 320 320 321
326 329 329 329 330 330 329 328 326 329 329 329 328 328 332 329 326 328 339 342 343 341 342 350 345 347 346 344 336 342 348 348 346 344 340 336 331 328 325 324 322 319 319 322 321 319 319 320 322
323 327 329 329 329 329 328 329 327 327 329 329 328 328 328 327 326 328 334 342 341 341 341 346 344 345 344 342 344 336 337 340 340 340 337 332 337 337 337 331 334 321 318 320 320 320 319 319 320
322 325 326 327 328 328 328 328 328 327 329 330 329 328 328 326 325 327 329 338 341 341 340 343 345 344 343 339 343 343 343 342 343 342 343 341 338 340 337 336 331 333 322 319 320 322 323 324 328
321 322 323 325 326 327 328 328 328 329 328 328 330 329 328 325 325 326 326 330 341 341 340 340 345 346 343 339 342 342 341 342 343 343 343 342 339 340 340 340 339 338 333 333 330 332 332 331 331
320 321 321 322 324 324 325 327 328 329 329 326 327 328 326 325 325 325 325 326 334 338 339 339 344 346 346 341 341 343 339 342 342 343 344 345 342 343 344 340 341 341 337 337 333 335 335 335 334
319 320 320 320 321 322 323 325 325 325 325 325 324 327 327 325 324 322 324 326 330 335 339 338 342 348 349 348 341 342 340 341 341 343 345 345 346 344 346 343 340 339 339 338 339 335 335 335 336
316 317 318 319 318 320 321 322 321 322 322 322 322 324 326 324 323 322 323 324 331 334 339 339 339 345 350 350 348 345 344 341 343 342 344 348 346 345 344 343 342 340 338 337 336 337 336 336 336
316 316 317 317 318 318 318 318 318 319 320 320 320 322 324 325 322 321 322 324 328 334 339 341 340 341 348 350 350 347 345 344 344 344 344 347 347 345 344 342 342 339 338 338 337 337 336 336 336
315 315 316 316 316 316 317 317 318 319 319 319 319 319 320 323 323 321 321 323 325 327 330 333 341 341 345 348 348 347 345 345 344 344 343 344 347 344 344 341 340 339 338 338 339 338 338 337 339
316 316 317 316 316 315 316 316 317 318 318 318 319 318 319 320 321 320 321 321 322 325 328 337 340 342 344 344 347 347 344 342 341 341 341 343 345 346 344 343 338 338 337 337 337 338 339 340 341
317 318 317 317 317 316 316 317 317 318 317 318 318 318 318 319 319 319 320 319 321 325 327 328 339 347 343 347 347 344 343 341 340 339 338 340 343 344 344 334 338 339 338 336 336 339 340 340 343
316 317 318 317 316 315 317 317 317 318 318 317 318 318 318 318 318 318 318 319 321 324 327 328 330 339 347 341 345 345 344 342 341 340 336 339 339 341 337 340 339 340 339 334 339 338 338 343 345
315 315 315 316 316 316 317 317 317 317 317 318 318 318 318 318 318 317 317 318 322 323 324 325 328 331 336 349 341 342 342 341 343 341 339 338 338 340 340 340 336 338 338 338 342 335 343 345 346
314 314 315 315 316 316 315 316 316 316 317 317 317 317 317 318 318 317 317 318 320 321 322 322 325 327 331 331 341 349 345 339 339 341 340 338 339 339 339 339 335 338 340 342 344 340 344 341 344
315 315 315 314 314 315 316 316 318 317 315 315 316 317 317 317 317 318 318 318 318 318 320 322 324 326 326 330 329 330 348 350 347 346 344 342 339 340 339 337 336 332 334 342 342 344 345 348 346
314 314 314 314 315 316 315 316 316 317 316 316 316 316 317 318 318 318 318 318 318 317 319 321 323 324 326 327 330 331 331 335 346 350 350 350 347 342 341 339 333 338 344 345 345 346 351 349 350
314 314 314 315 316 317 316 316 316 316 315 316 315 315 315 317 319 318 317 317 317 317 318 320 321 323 324 325 326 330 333 334 335 335 343 351 345 345 344 344 341 338 345 347 352 350 353 352 350
314 315 316 317 318 318 316 316 316 317 315 316 315 315 315 317 318 319 318 317 318 318 317 318 319 321 322 323 324 325 327 331 334 337 334 338 347 350 350 349 348 350 352 353 352 353 353 354 352
316 318 320 323 319 316 317 316 317 316 316 315 315 315 316 317 318 319 318 317 317 317 317 318 319 320 321 323 324 324 325 326 327 329 333 332 333 340 347 354 352 352 353 354 353 354 354 353 352
315 317 316 317 317 318 317 316 318 316 315 316 316 315 315 316 318 318 317 317 317 317 317 318 319 320 321 322 324 326 326 326 327 329 332 336 337 336 338 347 354 353 353 352 354 355 354 352 351
315 316 321 319 318 317 316 316 317 318 317 316 316 316 316 317 317 317 317 316 316 317 317 317 319 320 320 320 321 323 325 324 325 328 331 333 336 341 340 342 347 349 349 353 355 354 353 351 349
315 317 316 318 317 322 320 318 318 318 317 316 316 316 316 317 317 317 316 315 316 316 316 316 316 318 319 319 320 321 325 326 324 326 328 331 336 340 342 344 343 345 349 354 355 353 350 349 350
316 318 319 324 320 316 316 316 317 317 317 316 316 317 317 317 317 317 317 316 316 316 316 316 315 316 317 318 318 319 322 326 327 326 327 329 334 340 344 344 344 345 350 353 353 352 347 350 350
Wind_Speed
11 10 10 10 7 7 17 19 4 3 5 6 7 6 11 15 11 4 10 10 7 19 23 29 31 28 27 26 25 24 24 23 22 21 19 18 18 17 16 14 13 11 11 10 9 8 7 6 5
8 10 11 6 8 13 12 17 5 12 10 4 7 11 12 13 7 5 10 12 4 18 24 25 31 28 26 27 28 28 26 24 23 21 19 18 17 17 16 15 14 12 11 10 9 8 7 5 5
8 8 9 7 11 16 10 6 1 4 3 5 4 2 6 5 13 11 16 11 4 15 20 25 33 29 27 26 28 30 29 26 25 22 21 20 19 18 17 15 14 12 10 10 8 7 6 6 5
8 9 6 10 17 19 12 11 12 6 5 5 3 5 5 10 9 17 17 13 7 17 20 25 34 30 28 27 29 30 29 28 26 23 22 20 19 18 16 15 14 12 10 9 9 8 7 6 6
13 7 13 16 20 17 13 10 9 10 6 6 5 9 1 9 12 18 15 9 15 20 22 26 35 32 30 28 27 30 29 27 25 24 23 22 20 18 16 16 14 12 11 9 8 7 7 7 6
11 11 15 17 20 16 11 14 10 10 10 6 5 5 7 7 17 18 15 9 12 22 25 23 37 35 32 29 28 29 28 27 25 24 23 21 20 19 17 15 14 12 11 10 9 8 8 7 7
17 15 19 22 21 17 13 12 15 15 10 1 6 5 4 12 18 17 13 7 11 21 25 23 31 32 33 31 29 29 28 26 25 24 22 21 20 19 17 16 13 11 10 10 9 9 9 8 8
15 16 27 23 20 24 14 13 15 19 14 12 3 6 2 12 18 16 10 8 12 22 25 22 28 28 27 27 31 29 28 26 25 24 22 21 20 18 17 16 14 12 11 10 9 9 10 9 9
20 18 22 28 26 20 17 15 13 17 24 9 9 11 11 8 17 15 13 3 10 22 24 23 26 27 27 25 25 31 29 27 25 24 22 21 14 15 14 13 13 13 12 12 11 11 12 12 12
20 17 29 27 22 23 19 20 17 15 20 23 18 14 12 6 17 17 11 9 8 16 23 24 25 25 26 26 23 24 21 21 19 18 16 17 16 14 15 14 16 15 15 14 13 13 14 14 12
22 25 25 25 27 26 22 13 19 19 16 18 21 17 6 14 19 14 15 7 2 14 20 22 25 23 26 26 25 23 22 21 20 20 20 19 17 15 15 13 14 15 16 13 13 13 13 14 14
25 25 23 27 28 19 21 13 23 15 19 7 11 13 11 14 14 15 17 7 7 13 19 20 24 22 24 25 26 22 25 23 22 22 22 19 18 17 14 15 13 14 13 13 14 12 14 14 15
20 25 22 21 21 22 17 20 22 21 17 9 14 21 20 15 14 19 17 8 6 7 10 22 16 23 21 20 24 23 26 24 23 22 23 22 19 18 17 16 15 13 12 14 12 14 14 15 17
15 16 21 22 17 22 21 20 23 24 22 19 16 17 18 15 12 13 14 18 4 7 9 15 25 19 20 22 17 23 22 24 24 23 23 25 21 20 18 19 16 16 14 14 13 14 15 16 17
12 15 16 19 17 19 17 25 27 23 21 18 13 18 17 17 14 9 7 6 3 3 8 11 17 24 24 25 25 20 22 23 24 23 21 23 26 20 19 18 17 16 14 15 15 14 14 16 16
14 17 17 21 23 20 19 23 22 22 24 14 18 19 14 14 14 11 4 4 2 2 2 9 11 17 28 27 25 22 21 23 21 24 23 24 26 27 22 20 17 15 14 14 14 15 15 16 17
17 15 20 17 5 9 19 20 24 8 8 12 13 13 13 11 11 13 8 5 2 4 4 4 12 23 27 28 27 24 22 24 25 24 25 26 27 26 25 19 18 19 20 18 19 15 15 16 18
14 18 16 10 15 12 15 19 18 13 13 15 15 15 13 11 11 13 7 4 5 3 7 9 1 8 17 18 20 23 23 26 25 25 25 25 27 29 27 25 21 19 18 20 19 14 14 17 20
14 16 13 7 10 5 14 17 18 17 17 16 16 16 15 15 14 14 8 4 3 4 2 7 4 1 8 20 16 19 21 18 23 27 28 28 30 31 29 24 23 19 18 23 23 17 24 16 17
14 16 16 15 10 9 16 19 19 18 17 17 17 18 17 14 11 11 12 9 2 2 4 5 2 2 4 17 26 19 24 19 18 21 24 29 28 25 26 29 25 23 21 25 26 22 16 15 15
15 16 15 14 9 10 18 23 24 26 25 17 15 16 12 13 8 9 10 9 6 5 2 1 2 2 5 9 11 16 18 22 25 27 30 33 27 28 28 28 24 23 23 24 30 24 21 17 19
15 12 12 10 10 12 2 12 9 7 9 10 9 7 10 10 12 9 10 11 7 5 2 3 3 3 6 2 10 11 17 18 27 34 29 23 32 32 30 27 25 29 33 27 26 24 25 19 21
12 2 9 13 14 16 20 12 15 18 16 12 9 8 8 7 6 5 5 3 3 3 2 3 4 6 5 5 8 10 17 20 25 26 24 21 25 31 29 27 33 34 31 29 29 26 25 23 23
10 10 15 17 15 16 20 18 14 13 15 16 9 8 5 6 6 4 1 4 4 4 5 3 4 5 7 7 7 10 15 15 19 20 18 25 27 25 34 34 28 31 30 36 26 31 26 25 22
13 13 12 15 14 14 5 6 12 8 6 5 3 5 5 8 8 6 5 5 6 8 9 8 8 7 7 9 11 11 16 13 18 20 20 22 20 24 25 25 27 32 36 31 31 27 26 26 22
12 14 11 8 11 5 11 7 11 9 10 2 5 6 6 8 6 5 6 6 10 11 12 10 11 13 12 11 12 13 16 16 19 20 19 19 23 24 16 34 36 34 29 31 31 27 25 26 24
12 10 10 13 19 14 16 16 12 11 8 7 8 6 5 8 7 7 10 10 10 10 11 15 15 14 14 15 13 15 16 19 20 22 21 19 20 23 24 16 26 30 31 28 27 24 26 25 23
12 9 6 8 13 18 16 17 13 21 17 9 6 5 4 5 8 11 13 15 16 14 15 15 16 17 18 17 18 18 17 18 20 21 22 22 24 21 24 22 22 25 27 28 27 26 25 24 22
11 16 16 16 10 6 11 6 11 1 5 2 4 5 8 11 13 14 14 14 17 19 19 20 20 19 20 20 18 20 20 20 21 21 22 23 25 25 25 25 27 28 27 27 28 26 24 24 23
15 16 15 6 14 12 14 17 12 9 5 4 7 14 12 9 11 14 14 16 18 19 22 24 23 25 23 22 23 21 21 22 22 22 23 25 25 24 25 27 27 27 26 28 28 27 25 24 23
Wind_Direction
325 306 297 263 240 224 257 239 272 73 242 248 338 268 243 335 350 28 78 41 91 145 161 169 163 172 174 179 181 181 179 179 175 173 166 162 162 162 160 156 156 157 154 155 156 152 150 149 150
305 296 254 277 248 242 232 250 156 246 71 16 259 243 250 266 52 16 345 23 99 149 161 172 171 172 179 182 183 183 183 182 181 177 173 170 169 167 168 163 162 163 161 159 159 160 155 150 144
293 276 277 236 236 254 275 4 186 132 95 252 250 315 349 337 36 353 330 327 170 161 171 175 178 172 180 190 189 185 185 184 184 181 178 175 175 173 171 169 166 166 167 164 162 159 152 149 145
262 236 240 250 247 221 261 335 3 285 201 216 318 253 147 87 4 338 323 288 217 181 179 188 181 175 180 192 191 190 190 186 186 185 183 179 180 178 174 173 171 171 172 168 169 168 164 167 163
243 259 259 241 245 247 230 250 279 299 278 255 182 248 246 82 5 340 329 284 215 189 182 191 186 181 180 191 196 194 193 191 192 189 188 183 183 180 181 178 178 178 175 176 182 181 182 181 178
235 235 249 244 241 236 222 248 247 277 263 264 217 257 266 89 3 344 345 303 205 188 181 180 188 185 182 189 196 198 199 197 196 196 194 188 187 184 185 187 186 184 183 186 193 196 198 199 196
245 242 241 254 258 241 197 207 247 249 284 235 37 272 274 39 350 338 356 309 200 182 182 177 182 186 187 189 197 201 202 204 202 202 199 195 194 193 191 193 193 197 197 201 204 212 216 214 218
239 247 254 247 248 253 184 196 224 247 248 294 278 246 329 21 336 336 3 321 212 184 184 177 179 186 186 190 198 203 207 207 204 205 204 203 199 201 200 202 201 205 210 214 225 227 231 234 235
233 245 245 240 247 247 248 211 195 239 247 251 254 298 312 346 335 337 340 21 230 189 183 178 181 185 186 190 196 203 208 212 211 208 209 206 199 208 217 211 224 223 217 222 229 238 241 242 243
228 237 243 255 247 249 252 246 194 214 242 233 246 248 285 319 332 324 337 3 254 197 187 181 181 187 188 190 194 195 201 207 208 206 208 199 204 210 212 219 225 230 229 227 231 239 248 252 248
221 241 250 247 257 268 262 242 246 208 225 244 244 248 280 314 309 306 313 334 302 225 196 194 178 189 192 194 188 193 198 200 207 206 205 205 207 212 214 215 221 229 236 225 237 236 240 244 255
233 245 250 258 270 271 263 266 267 225 242 253 266 279 307 284 299 301 302 337 253 258 216 209 178 192 201 198 192 193 196 197 202 207 205 207 209 214 217 218 222 217 221 226 227 232 231 237 245
236 246 251 255 271 270 260 251 262 258 249 233 268 243 243 279 285 287 277 271 233 226 232 211 210 191 208 222 198 199 197 196 202 204 206 208 209 213 217 222 222 227 228 227 228 236 238 238 242
239 257 254 258 246 253 255 251 255 250 259 250 252 260 252 245 280 285 284 269 180 229 215 212 203 204 207 222 217 200 197 200 202 206 207 208 212 214 214 222 222 230 231 238 236 236 242 241 249
264 265 260 258 244 245 250 250 247 255 256 250 245 251 253 235 248 264 266 292 291 232 191 222 201 204 205 213 228 206 204 202 204 208 204 202 211 222 214 226 226 232 232 235 239 239 242 251 253
248 244 252 239 224 232 236 255 251 244 232 243 246 252 253 241 241 241 210 260 234 9 47 233 194 207 202 210 220 217 208 207 213 212 207 208 210 212 217 225 232 230 229 236 240 239 239 244 251
225 253 234 243 162 236 223 248 256 163 210 242 250 244 242 232 222 233 202 153 347 349 30 90 180 224 206 204 211 222 222 218 218 219 209 208 214 217 214 223 226 221 219 218 227 230 252 252 244
247 221 235 255 171 212 242 237 254 188 224 238 236 243 223 235 225 223 198 181 120 72 19 42 320 231 209 188 211 229 228 229 228 221 216 213 215 216 218 221 224 220 225 226 216 227 244 249 266
304 286 294 255 225 216 265 265 258 246 227 237 241 236 237 224 229 235 261 247 149 86 13 67 29 171 227 196 205 211 226 229 238 232 220 220 216 218 222 214 216 215 219 236 227 207 227 231 253
261 261 257 262 260 264 273 271 269 261 257 256 247 239 235 226 207 231 228 231 234 305 43 61 48 316 222 215 221 214 214 215 234 246 237 230 226 219 218 217 215 217 221 232 226 227 208 222 241
250 259 263 270 287 293 269 263 258 245 242 247 251 243 241 238 218 231 232 212 224 214 237 211 208 225 229 248 221 236 246 251 256 258 244 225 225 219 221 233 234 234 239 229 230 231 228 230 235
263 271 236 282 268 265 356 283 307 177 213 211 199 196 207 217 216 214 206 210 210 213 207 271 299 283 266 203 263 240 254 225 230 240 236 222 223 223 219 221 237 239 244 235 230 238 237 228 243
280 8 273 263 268 275 263 249 262 242 183 178 188 172 185 191 202 213 182 160 207 221 260 238 261 271 258 227 236 248 250 244 242 239 235 220 217 219 232 223 221 219 222 237 237 239 228 226 230
270 276 257 250 249 250 251 246 246 192 196 175 182 202 193 206 164 177 249 283 263 270 266 252 271 274 295 282 255 244 253 262 265 262 262 215 220 220 224 221 228 230 231 228 232 229 228 223 227
253 250 258 245 221 240 192 201 243 84 136 120 238 266 254 186 197 198 250 282 307 284 278 284 285 291 277 285 284 277 263 256 262 257 261 262 253 217 221 232 223 218 221 224 227 229 221 222 221
233 281 277 273 282 295 152 225 235 211 153 262 261 250 268 260 230 228 267 276 299 304 309 289 285 292 302 296 284 283 276 269 265 263 254 257 253 264 254 212 212 218 217 220 225 218 232 222 215
233 252 303 293 283 275 273 284 152 175 185 199 234 240 279 261 240 267 280 285 287 291 292 291 285 287 285 289 288 277 275 269 269 279 280 263 255 257 261 238 208 213 222 222 217 225 217 219 211
240 242 277 246 255 256 262 255 247 177 189 167 239 232 272 290 281 267 266 269 282 286 283 273 273 281 280 282 286 287 284 272 262 262 267 266 266 264 250 252 229 230 225 225 212 213 215 207 214
213 234 231 253 238 265 280 260 47 107 98 137 236 253 279 293 294 296 287 280 270 275 277 276 274 264 269 275 277 283 286 279 268 261 261 262 260 257 252 243 238 230 224 219 212 211 208 203 208
247 237 263 242 238 237 259 273 279 241 93 83 258 249 280 298 289 306 300 299 296 290 284 279 279 278 268 267 271 272 278 280 271 261 257 259 259 253 244 239 232 226 222 213 209 205 209 201 207